Previsão horária em Cepaevo

Hoje, 1 Agosto, Domingo

Tempo Temperatura Precipitação Vento Pressão Humidade
00:00 +20°C° 0 mm 2 m/s 741 mmHg 64%
01:00 +20°C° 0 mm 2 m/s 742 mmHg 66%
02:00 +20°C° 0 mm 2 m/s 742 mmHg 68%
03:00 +19°C° 0 mm 2 m/s 742 mmHg 70%
04:00 +21°C° 0 mm 1 m/s 742 mmHg 71%
05:00 +21°C° 0 mm 1 m/s 742 mmHg 72%
06:00 +21°C° 0 mm 1 m/s 743 mmHg 73%
07:00 +23°C° 0 mm 1 m/s 743 mmHg 67%
08:00 +24°C° 0 mm 1 m/s 743 mmHg 62%
09:00 +25°C° 0 mm 1 m/s 743 mmHg 58%
10:00 +27°C° 0 mm 2 m/s 743 mmHg 55%
11:00 +28°C° 0 mm 2 m/s 744 mmHg 51%
12:00 +29°C° 0 mm 2 m/s 744 mmHg 48%
13:00 +29°C° 0 mm 2 m/s 744 mmHg 45%
14:00 +30°C° 0 mm 3 m/s 744 mmHg 42%
15:00 +30°C° 0 mm 3 m/s 743 mmHg 40%
16:00 +30°C° 0 mm 2 m/s 743 mmHg 45%
17:00 +29°C° 0 mm 2 m/s 743 mmHg 49%
18:00 +28°C° 0 mm 1 m/s 743 mmHg 54%
19:00 +27°C° 0 mm 1 m/s 743 mmHg 54%
20:00 +26°C° 0 mm 1 m/s 743 mmHg 55%
21:00 +24°C° 0 mm 1 m/s 743 mmHg 55%
22:00 +24°C° 0 mm 2 m/s 743 mmHg 57%
23:00 +24°C° 0 mm 2 m/s 743 mmHg 60%

Amanhã, 2 Agosto, Segunda-feira

Tempo Temperatura Precipitação Vento Pressão Humidade
00:00 +22°C° 0 mm 3 m/s 743 mmHg 62%
01:00 +22°C° 0 mm 3 m/s 743 mmHg 63%
02:00 +22°C° 0 mm 3 m/s 743 mmHg 64%
03:00 +21°C° 0 mm 3 m/s 743 mmHg 65%
04:00 +21°C° 0 mm 3 m/s 743 mmHg 65%
05:00 +21°C° 0 mm 3 m/s 743 mmHg 66%
06:00 +22°C° 0 mm 3 m/s 743 mmHg 66%
07:00 +25°C° 0 mm 3 m/s 743 mmHg 61%
08:00 +27°C° 0 mm 3 m/s 744 mmHg 56%
09:00 +29°C° 0 mm 3 m/s 744 mmHg 51%
10:00 +30°C° 0 mm 3 m/s 744 mmHg 47%
11:00 +33°C° 0 mm 3 m/s 743 mmHg 43%
12:00 +34°C° 0 mm 3 m/s 743 mmHg 39%
13:00 +34°C° 0 mm 3 m/s 743 mmHg 38%
14:00 +35°C° 0 mm 3 m/s 742 mmHg 38%
15:00 +35°C° 0 mm 3 m/s 742 mmHg 37%
16:00 +34°C° 0 mm 3 m/s 742 mmHg 42%
17:00 +33°C° 0 mm 3 m/s 741 mmHg 46%
18:00 +31°C° 0 mm 2 m/s 741 mmHg 51%
19:00 +29°C° 0 mm 3 m/s 741 mmHg 54%
20:00 +28°C° 0 mm 3 m/s 741 mmHg 57%
21:00 +26°C° 0 mm 3 m/s 741 mmHg 61%
22:00 +26°C° 0 mm 3 m/s 741 mmHg 59%
23:00 +25°C° 0 mm 4 m/s 740 mmHg 57%

Depois de amanhã, 3 Agosto, Terça-feira

Tempo Temperatura Precipitação Vento Pressão Humidade
00:00 +25°C° 0 mm 4 m/s 740 mmHg 55%
01:00 +23°C° 0 mm 4 m/s 740 mmHg 57%
02:00 +23°C° 0 mm 4 m/s 740 mmHg 59%
03:00 +22°C° 0 mm 4 m/s 740 mmHg 61%
04:00 +22°C° 0.1 mm 4 m/s 740 mmHg 65%
05:00 +22°C° 0.1 mm 3 m/s 740 mmHg 68%
06:00 +23°C° 0.1 mm 2 m/s 740 mmHg 72%
07:00 +24°C° 0 mm 2 m/s 740 mmHg 66%
08:00 +26°C° 0 mm 1 m/s 740 mmHg 60%
09:00 +28°C° 0 mm 1 m/s 741 mmHg 55%
10:00 +28°C° 0 mm 2 m/s 741 mmHg 53%
11:00 +29°C° 0 mm 3 m/s 741 mmHg 52%
12:00 +29°C° 0 mm 4 m/s 741 mmHg 50%
13:00 +30°C° 0 mm 4 m/s 741 mmHg 50%
14:00 +30°C° 0 mm 3 m/s 741 mmHg 51%
15:00 +30°C° 0 mm 2 m/s 741 mmHg 51%
16:00 +29°C° 0 mm 2 m/s 741 mmHg 54%
17:00 +28°C° 0 mm 2 m/s 740 mmHg 57%
18:00 +27°C° 0 mm 2 m/s 740 mmHg 60%
19:00 +26°C° 0.7 mm 2 m/s 740 mmHg 68%
20:00 +24°C° 0.7 mm 2 m/s 741 mmHg 77%
21:00 +21°C° 0.7 mm 3 m/s 741 mmHg 85%
22:00 +21°C° 3 mm 3 m/s 741 mmHg 87%
23:00 +20°C° 3 mm 2 m/s 742 mmHg 89%

4 Agosto, Quarta-feira

Tempo Temperatura Precipitação Vento Pressão Humidade
00:00 +19°C° 3 mm 2 m/s 742 mmHg 91%
01:00 +18°C° 0 mm 2 m/s 742 mmHg 91%
02:00 +18°C° 0 mm 3 m/s 742 mmHg 92%
03:00 +18°C° 0 mm 3 m/s 742 mmHg 92%
04:00 +17°C° 0 mm 3 m/s 743 mmHg 91%
05:00 +17°C° 0 mm 3 m/s 743 mmHg 90%
06:00 +17°C° 0 mm 3 m/s 743 mmHg 88%
07:00 +19°C° 0 mm 3 m/s 743 mmHg 81%
08:00 +20°C° 0 mm 3 m/s 744 mmHg 74%
09:00 +21°C° 0 mm 3 m/s 744 mmHg 67%
10:00 +23°C° 0 mm 4 m/s 744 mmHg 60%
11:00 +25°C° 0 mm 4 m/s 744 mmHg 53%
12:00 +26°C° 0 mm 4 m/s 744 mmHg 46%
13:00 +26°C° 0 mm 4 m/s 744 mmHg 43%
14:00 +27°C° 0 mm 4 m/s 744 mmHg 40%
15:00 +27°C° 0 mm 4 m/s 744 mmHg 38%
16:00 +27°C° 0 mm 3 m/s 744 mmHg 41%
17:00 +26°C° 0 mm 3 m/s 745 mmHg 44%
18:00 +25°C° 0 mm 3 m/s 745 mmHg 48%
19:00 +24°C° 0 mm 3 m/s 745 mmHg 51%
20:00 +21°C° 0 mm 2 m/s 745 mmHg 54%
21:00 +20°C° 0 mm 2 m/s 746 mmHg 57%
22:00 +19°C° 0 mm 2 m/s 746 mmHg 60%
23:00 +18°C° 0 mm 2 m/s 746 mmHg 64%

5 Agosto, Quinta-feira

Tempo Temperatura Precipitação Vento Pressão Humidade
00:00 +17°C° 0 mm 2 m/s 746 mmHg 67%
01:00 +17°C° 0 mm 2 m/s 746 mmHg 68%
02:00 +17°C° 0 mm 2 m/s 746 mmHg 70%
03:00 +16°C° 0 mm 1 m/s 746 mmHg 71%
04:00 +16°C° 0 mm 1 m/s 747 mmHg 72%
05:00 +18°C° 0 mm 1 m/s 747 mmHg 72%
06:00 +18°C° 0 mm 1 m/s 747 mmHg 72%
07:00 +19°C° 0 mm 2 m/s 747 mmHg 67%
08:00 +20°C° 0 mm 2 m/s 747 mmHg 61%
09:00 +23°C° 0 mm 2 m/s 747 mmHg 55%
10:00 +24°C° 0 mm 2 m/s 747 mmHg 51%
11:00 +25°C° 0 mm 2 m/s 747 mmHg 47%
12:00 +26°C° 0 mm 1 m/s 747 mmHg 42%
13:00 +26°C° 0 mm 1 m/s 747 mmHg 43%
14:00 +26°C° 0 mm 1 m/s 747 mmHg 44%
15:00 +24°C° 0 mm 0 m/s 747 mmHg 44%
16:00 +26°C° 0 mm 1 m/s 747 mmHg 47%
17:00 +25°C° 0 mm 1 m/s 747 mmHg 49%
18:00 +25°C° 0 mm 1 m/s 747 mmHg 51%
19:00 +24°C° 0 mm 1 m/s 747 mmHg 53%
20:00 +22°C° 0 mm 1 m/s 747 mmHg 55%
21:00 +20°C° 0 mm 2 m/s 747 mmHg 57%
22:00 +19°C° 0 mm 2 m/s 747 mmHg 59%
23:00 +19°C° 0 mm 2 m/s 747 mmHg 61%

6 Agosto, Sexta-feira

Tempo Temperatura Precipitação Vento Pressão Humidade
00:00 +18°C° 0 mm 2 m/s 747 mmHg 63%
01:00 +18°C° 0 mm 2 m/s 747 mmHg 63%
02:00 +18°C° 0 mm 2 m/s 747 mmHg 63%
03:00 +18°C° 0 mm 2 m/s 747 mmHg 64%
04:00 +18°C° 0 mm 2 m/s 747 mmHg 65%
05:00 +18°C° 0 mm 2 m/s 747 mmHg 66%
06:00 +18°C° 0 mm 2 m/s 748 mmHg 67%
07:00 +20°C° 0 mm 2 m/s 748 mmHg 62%
08:00 +21°C° 0 mm 2 m/s 748 mmHg 57%
09:00 +24°C° 0 mm 2 m/s 748 mmHg 52%
10:00 +25°C° 0 mm 2 m/s 748 mmHg 48%
11:00 +26°C° 0 mm 2 m/s 748 mmHg 44%
12:00 +27°C° 0 mm 2 m/s 748 mmHg 40%
13:00 +28°C° 0 mm 3 m/s 747 mmHg 40%
14:00 +28°C° 0 mm 3 m/s 747 mmHg 39%
15:00 +28°C° 0 mm 3 m/s 747 mmHg 38%
16:00 +27°C° 0 mm 3 m/s 747 mmHg 44%
17:00 +26°C° 0 mm 4 m/s 747 mmHg 51%
18:00 +25°C° 0 mm 4 m/s 747 mmHg 57%
19:00 +23°C° 0 mm 5 m/s 747 mmHg 60%
20:00 +21°C° 0 mm 5 m/s 747 mmHg 63%
21:00 +20°C° 0 mm 5 m/s 747 mmHg 67%
22:00 +20°C° 0 mm 5 m/s 748 mmHg 65%
23:00 +20°C° 0 mm 4 m/s 748 mmHg 64%
Mostrar mais

Necessitamos do seu Consentimento

A Meteoprog e os seus Fornecedores de Serviços podem armazenar e aceder a dados pessoais como cookies, identificadores do dispositivo ou outras tecnologias semelhantes existentes no seu dispositivo e processar estes dados para personalizar conteúdos e anúncios, assim como funcionalidades nas redes sociais e análise de tráfego.

  • Armazenar e/ou aceder a informações no seu dispositivo

    Os cookies, identificadores do dispositivo ou outras informações podem ser armazenados ou acedidos no seu dispositivo, para os fins acima indicados.

  • Anúncios e conteúdos personalizados, medição de anúncios e conteúdos, dados sobre o público-alvo e desenvolvimento de produtos

    Os anúncios e os conteúdos podem ser personalizados com base num perfil. Podem ser adicionados dados adicionais para uma maior personalização dos anúncios e dos conteúdos. A eficácia dos anúncios e dos conteúdos pode ser medida. Podem ser obtidas informações sobre o público que visualizou os anúncios e os conteúdos. Estes dados podem ser usados para desenvolver ou melhorar sistemas, softwares ou a experiência do utilizador.

Ao clicar em "Eu concordo”, permitirá o uso de cookies, identificadores do dispositivo e web beacons mencionados ou outras tecnologias semelhantes. As configurações do navegador do seu dispositivo podem ser alteradas.

Para certos fins, podem ser invocados interesses legítimos ao invés de consentimento. Pode ler mais informação sobre este assunto na nossa Política de Privacidade e Cookies.